Flag for U.S.A. Weather past 2 weeks in Duluth, Minnesota, U.S.A.

43 °F

Mostly cloudy.

Feels Like: 37 °F
Forecast: 22 / 33 °F
Wind: 10 mph from Northwest

Location: Sky Harbor Airport

Current Time: Nov 25, 2015 at 6:28:55 PM

Latest Report: Nov 25, 2015 at 5:33 PM

Visibility: 10 mi

Pressure: 29.95 "Hg

Humidity: 81%

Dew point: 37 °F

Location of DuluthLocation

Historic Weather in Duluth — Graph


Duluth temperature yesterday

Maximum temperature yesterday: 43 °F (at 2:14 PM)
Minimum temperature yesterday: 30 °F (at 6:13 AM)
Average temperature yesterday: 36 °F

Past Weeks' High & Low Weather Summary

High59 °F (Nov 18, 11:13 AM)100% (Nov 12, 1:34 AM)30.32 "Hg (Nov 12, 1:34 AM)
Low16 °F (Nov 22, 2:14 AM)46% (Nov 21, 3:14 PM)29.00 "Hg (Nov 18, 1:54 PM)
Average38 °F79%29.84 "Hg
* Reported Nov 10 5:13 PM — Nov 25 4:54 PM, Duluth, Weather by CustomWeather, © 2015

Note: Actual official high and low records may vary slightly from our data, if they occured in-between our weather recording intervals... More about our weather records


Duluth weather history for previous 24 hours

Time TempWeatherWind HumidityBarometerVisibility
4:54 PM
Wed, Nov 25
43 °FOvercast.10 mph81%29.93 "Hg10 mi
4:33 PM43 °FOvercast.7 mph81%29.92 "Hg10 mi
4:14 PM43 °FOvercast.6 mph81%29.91 "Hg10 mi
3:54 PM41 °FOvercast.No wind87%29.90 "Hg10 mi
2:53 PM43 °FOvercast.No wind81%29.86 "Hg10 mi
2:34 PM43 °FOvercast.No wind81%29.86 "Hg10 mi
2:14 PM43 °FOvercast.No wind81%29.85 "Hg10 mi
1:53 PM43 °FOvercast.No wind81%29.85 "Hg10 mi
1:34 PM43 °FOvercast.No wind76%29.85 "Hg10 mi
1:13 PM43 °FOvercast.No wind76%29.85 "Hg10 mi
12:54 PM43 °FOvercast.No wind76%29.85 "Hg10 mi
12:34 PM43 °FOvercast.No wind76%29.86 "Hg10 mi
12:13 PM43 °FOvercast.No wind76%29.86 "Hg10 mi
11:54 AM43 °FOvercast.No wind76%29.86 "Hg10 mi
11:34 AM43 °FOvercast.No wind76%29.86 "Hg10 mi
11:13 AM43 °FOvercast.No wind76%29.86 "Hg10 mi
10:54 AM43 °FOvercast.No wind71%29.87 "Hg10 mi
10:33 AM41 °FOvercast.No wind76%29.88 "Hg10 mi
9:54 AM41 °FPartly sunny.No wind76%29.88 "Hg10 mi
9:33 AM41 °FScattered clouds.No wind76%29.88 "Hg10 mi
9:14 AM41 °FScattered clouds.No wind76%29.88 "Hg10 mi
8:53 AM41 °FBroken clouds.No wind76%29.88 "Hg10 mi
8:34 AM41 °FPartly sunny.No wind76%29.88 "Hg10 mi
8:13 AM39 °FOvercast.5 mph81%29.88 "Hg10 mi
7:54 AM39 °FOvercast.6 mph81%29.89 "Hg10 mi
7:34 AM39 °FOvercast.5 mph81%29.90 "Hg10 mi
7:13 AM39 °FOvercast.5 mph81%29.90 "Hg10 mi
6:54 AM39 °FOvercast.6 mph81%29.91 "Hg10 mi
6:33 AM39 °FOvercast.7 mph81%29.91 "Hg10 mi
6:14 AM39 °FOvercast.6 mph81%29.91 "Hg10 mi
5:53 AM39 °FOvercast.6 mph75%29.92 "Hg10 mi
5:34 AM39 °FOvercast.6 mph75%29.93 "Hg10 mi
5:13 AM39 °FOvercast.6 mph75%29.93 "Hg10 mi
4:54 AM39 °FOvercast.5 mph70%29.94 "Hg10 mi
4:34 AM37 °FOvercast.5 mph75%29.94 "Hg10 mi
4:13 AM37 °FPassing clouds.3 mph75%29.95 "Hg10 mi
3:54 AM37 °FPassing clouds.5 mph75%29.96 "Hg10 mi
3:33 AM37 °FClear.5 mph75%29.97 "Hg10 mi
3:14 AM37 °FClear.5 mph75%29.97 "Hg10 mi
2:54 AM37 °FClear.5 mph75%29.98 "Hg10 mi
2:33 AM37 °FClear.5 mph75%29.98 "Hg10 mi
2:14 AM37 °FClear.9 mph75%29.99 "Hg10 mi
1:54 AM37 °FClear.5 mph75%30.00 "Hg10 mi
1:14 AM37 °FClear.6 mph75%30.01 "Hg10 mi
12:53 AM37 °FClear.5 mph75%30.02 "Hg10 mi
12:14 AM37 °FClear.5 mph70%30.03 "Hg10 mi
11:53 PM
Tue, Nov 24
37 °FClear.6 mph70%30.04 "Hg10 mi
11:34 PM37 °FClear.7 mph70%30.05 "Hg10 mi
11:13 PM37 °FClear.7 mph70%30.07 "Hg10 mi
10:54 PM37 °FClear.8 mph70%30.07 "Hg10 mi
10:34 PM37 °FClear.9 mph70%30.07 "Hg10 mi
10:13 PM37 °FClear.13 mph75%30.07 "Hg10 mi
9:34 PM37 °FClear.14 mph70%30.09 "Hg10 mi
9:13 PM37 °FClear.12 mph70%30.10 "Hg10 mi
8:54 PM37 °FClear.13 mph70%30.10 "Hg10 mi
8:34 PM37 °FClear.15 mph70%30.10 "Hg10 mi
8:13 PM37 °FClear.16 mph75%30.10 "Hg10 mi
7:54 PM39 °FClear.17 mph70%30.11 "Hg10 mi
7:34 PM39 °FClear.17 mph70%30.12 "Hg10 mi
7:14 PM39 °FClear.16 mph70%30.13 "Hg10 mi
Weather by CustomWeather, © 2015

See weather overviewHow to use our weather pages